Flag for Greece Weather past 2 weeks in Rhodes, Rhodes, Greece

Now
57 °F

Passing clouds.


Feels Like: 55 °F
Forecast: 56 / 65 °F
Wind: 8 mph from West

Location: Rhodes Airport

Current Time: Mar 4, 2015 at 12:54:23 AM

Latest Report: Mar 3, 2015 at 11:50 PM


Visibility: N/A

Pressure: 30.09 "Hg

Humidity: 77%

Dew point: 50 °F

Location of RhodesLocation

Historic Weather in Rhodes — Graph

°F

Rhodes temperature yesterday

Maximum temperature yesterday: 61 °F (at 12:20 PM)
Minimum temperature yesterday: 55 °F (at 12:20 AM)
Average temperature yesterday: 58 °F

Past Weeks' High & Low Weather Summary

 TemperatureHumidityPressure
High66 °F (Feb 27, 10:20 AM)100% (Feb 25, 6:50 PM)30.18 "Hg (Feb 25, 6:50 PM)
Low39 °F (Feb 18, 10:50 PM)24% (Feb 18, 7:20 AM)29.71 "Hg (Feb 24, 3:50 PM)
Average54 °F70%29.97 "Hg
* Reported Feb 16 11:20 PM — Mar 3 11:20 PM, Rhodes, Weather by CustomWeather, © 2015

Note: Actual official high and low records may vary slightly from our data, if they occured in-between our weather recording intervals... More about our weather records

Advertising

Rhodes weather history for previous 24 hours

 ConditionsComfort  
Time TempWeatherWind HumidityBarometerVisibility
11:20 PM
Tue, Mar 3
57 °FPassing clouds.9 mph82%30.12 "HgN/A
10:50 PM57 °FPassing clouds.9 mph82%30.09 "HgN/A
10:20 PM59 °FPassing clouds.7 mph82%30.09 "HgN/A
9:50 PM59 °FPassing clouds.9 mph82%30.09 "HgN/A
9:20 PM59 °FPassing clouds.7 mph82%30.09 "HgN/A
8:50 PM59 °FPassing clouds.7 mph82%30.07 "HgN/A
8:20 PM55 °FPassing clouds.7 mph94%30.07 "HgN/A
7:50 PM55 °FPassing clouds.8 mph94%30.07 "HgN/A
7:20 PM55 °FPassing clouds.2 mph94%30.07 "HgN/A
6:50 PM55 °FPassing clouds.2 mph94%30.04 "HgN/A
6:20 PM59 °FPassing clouds.3 mph82%30.04 "HgN/A
5:50 PM59 °FScattered clouds.5 mph82%30.04 "HgN/A
5:20 PM61 °FScattered clouds.6 mph72%30.04 "HgN/A
4:50 PM61 °FPartly sunny.7 mph72%30.01 "HgN/A
4:20 PM59 °FPartly sunny.3 mph88%30.01 "HgN/A
3:50 PM59 °FPartly sunny.5 mph88%30.01 "HgN/A
3:20 PM59 °FPartly sunny.No wind82%30.01 "HgN/A
2:50 PM59 °FPartly sunny.2 mph82%30.01 "HgN/A
2:20 PM59 °FPartly sunny.5 mph82%30.01 "HgN/A
1:50 PM59 °FPartly sunny.8 mph82%30.01 "HgN/A
1:20 PM61 °FScattered clouds.6 mph88%30.01 "HgN/A
12:50 PM61 °FScattered clouds.10 mph83%30.01 "HgN/A
12:20 PM61 °FScattered clouds.9 mph83%30.01 "HgN/A
11:20 AM57 °FLight rain. Partly sunny.7 mph82%30.01 "Hg3 mi
10:50 AM57 °FLight rain. Partly sunny.12 mph82%30.01 "Hg3 mi
10:20 AM59 °FPartly sunny.13 mph77%30.01 "HgN/A
9:50 AM59 °FLight rain. Partly sunny.8 mph77%30.01 "HgN/A
9:20 AM57 °FPartly sunny.7 mph77%30.01 "HgN/A
8:50 AM57 °FPartly sunny.6 mph77%30.01 "HgN/A
8:20 AM57 °FPartly sunny.8 mph82%30.01 "HgN/A
7:50 AM55 °FPartly sunny.6 mph88%30.01 "Hg6 mi
7:20 AM55 °FPartly sunny.2 mph82%30.01 "Hg6 mi
6:50 AM55 °FPartly sunny.2 mph82%30.01 "Hg5 mi
6:20 AM57 °FLight rain. Partly cloudy.6 mph72%30.01 "Hg6 mi
5:50 AM57 °FPassing clouds.5 mph72%30.01 "HgN/A
5:20 AM57 °FPassing clouds.5 mph72%30.01 "HgN/A
4:50 AM57 °FPassing clouds.3 mph72%30.01 "HgN/A
4:20 AM55 °FPassing clouds.3 mph77%30.01 "HgN/A
3:50 AM55 °FPassing clouds.5 mph77%30.04 "HgN/A
3:20 AM55 °FPassing clouds.2 mph72%30.01 "HgN/A
2:50 AM55 °FPassing clouds.5 mph72%30.04 "HgN/A
2:20 AM55 °FPassing clouds.3 mph77%30.09 "HgN/A
1:50 AM55 °FPassing clouds.3 mph77%30.09 "HgN/A
1:20 AM57 °FPassing clouds.No wind72%30.09 "HgN/A
12:50 AM57 °FPassing clouds.No wind72%30.09 "HgN/A
12:20 AM55 °FPassing clouds.No wind82%30.09 "HgN/A
Weather by CustomWeather, © 2015

See weather overviewHow to use our weather pages